• Join FlightAware (Why Join?)
  • Login
  • US Flag 
11:36AM EDT


 

Airport Tracker/Info


-or-


 

Live Flight TrackerFlight Track Log ✈ JBU56 ✈ 20-Sep-2013 ✈ KIAD - KBOS

Flight Track Log - Related Links

Times and Time Zones

All times are in EDT time to prevent confusion due to time zone crossing. See the JBU56 flight status page for this flight to view local times or setup timezone preferences in your user account.

Time Position Orientation Groundspeed Altitude Reporting Facility
EDT Latitude Longitude Course Direction KTS MPH feet Rate Location/Type
09:02AM 38.9667 -77.5167 90° East 193 222 1,700  Level Potomac TRACON
09:03AM 39.0000 -77.5667 311° West 231 266 4,200 3,000 Climbing Potomac TRACON
09:04AM 39.1159 -77.1710 90° East  Level Estimated
09:04AM 39.0500 -77.5333 27° Northeast 248 285 7,400  Level Potomac TRACON
09:05AM 39.1719 -77.0743 90° East  Level Estimated
09:05AM 39.1000 -77.4667 46° Northeast 255 293 9,900  Level Potomac TRACON
09:06AM 39.2278 -76.9775 74° East  Level Estimated
09:07AM 39.2836 -76.8806 90° East  Level Estimated
09:07AM 39.1536 -77.2911 68° East 307 353 10,000  Level Washington Center
09:08AM 39.1158 -77.1672 111° Southeast 313 360 12,100 2,460 Climbing Washington Center
09:09AM 39.0756 -77.0489 114° Southeast 329 379 14,900 2,520 Climbing Washington Center
09:10AM 39.0583 -76.9175 100° East 346 398 17,200 2,040 Climbing Washington Center
09:11AM 39.0783 -76.7867 79° East 360 414 19,100 1,560 Climbing Washington Center
09:12AM 39.0964 -76.6453 81° East 371 427 20,700 1,620 Climbing Washington Center
09:13AM 39.1186 -76.4692 81° East 395 455 22,700 1,740 Climbing Washington Center
09:14AM 39.1383 -76.3169 80° East 418 481 24,200 900 Climbing Washington Center
09:20AM 39.5180 -75.6060 80° East 453 521 29,100 720 Climbing FlightAware
09:20AM 39.5580 -75.5420 51° Northeast 453 521 29,100  Level FlightAware
09:21AM 39.5990 -75.4750 52° Northeast 453 521 29,100  Level FlightAware
09:21AM 39.6400 -75.4110 50° Northeast 453 521 29,100  Level FlightAware
09:22AM 39.6800 -75.3460 51° Northeast 453 521 29,100 1,380 Level FlightAware
09:23AM 39.7610 -75.2190 50° Northeast 453 521 31,000 1,380 Climbing FlightAware
09:23AM 39.8020 -75.1550 50° Northeast 453 521 31,000  Level FlightAware
09:23AM 39.8250 -75.1110 56° Northeast 423 487 31,000  Level FlightAware
09:24AM 39.9100 -75.0110 42° Northeast 643 740 31,000  Level FlightAware
09:24AM 39.9060 -74.9820 100° East 396 456 31,000  Level FlightAware
09:25AM 39.9480 -74.9120 52° Northeast 446 513 31,000  Level FlightAware
09:26AM 39.9950 -74.8400 50° Northeast 459 528 31,000  Level FlightAware
09:26AM 40.0380 -74.7710 51° Northeast 454 522 31,000  Level FlightAware
09:27AM 40.0950 -74.6800 51° Northeast 440 506 31,000  Level FlightAware
09:27AM 40.1290 -74.6260 51° Northeast 458 527 31,000  Level FlightAware
09:28AM 40.1660 -74.5660 51° Northeast 448 516 31,000  Level FlightAware
09:28AM 40.2080 -74.5000 50° Northeast 440 506 31,000  Level FlightAware
09:29AM 40.2310 -74.4650 49° Northeast 443 510 31,000  Level FlightAware
09:29AM 40.2480 -74.4360 52° Northeast 448 516 31,000  Level FlightAware
09:29AM 40.2880 -74.3710 51° Northeast 440 506 31,000  Level FlightAware
09:30AM 40.3520 -74.2750 49° Northeast 439 505 31,000  Level FlightAware
09:31AM 40.3910 -74.2050 54° Northeast 438 504 31,000  Level FlightAware
09:31AM 40.4250 -74.1500 51° Northeast 437 503 31,000  Level FlightAware
09:32AM 40.4950 -74.0350 51° Northeast 440 506 31,000 -720 Level FlightAware
09:33AM 40.5560 -73.9390 50° Northeast 436 502 29,800 -900 Descending FlightAware
09:34AM 40.5950 -73.8730 52° Northeast 436 502 29,800  Level FlightAware
09:34AM 40.6330 -73.8090 52° Northeast 436 502 29,800  Level FlightAware
09:35AM 40.6710 -73.7450 52° Northeast 436 502 29,800  Level FlightAware
09:35AM 40.7090 -73.6810 52° Northeast 436 502 29,800  Level FlightAware
09:36AM 40.7470 -73.6170 52° Northeast 436 502 29,800  Level FlightAware
09:37AM 40.7850 -73.5530 52° Northeast 436 502 29,800 -3,120 Level FlightAware
09:37AM 40.8706 -73.4228 52° Northeast 402 463 26,300 -3,120 Descending Boston Center
09:38AM 40.9339 -73.3247 49° Northeast 367 422 25,100 -1,380 Descending Boston Center
09:39AM 40.9972 -73.2347 47° Northeast 341 392 23,600 -1,680 Descending Boston Center
09:40AM 41.0622 -73.1419 47° Northeast 341 392 21,800 -1,380 Descending Boston Center
09:41AM 41.1108 -73.0406 58° Northeast 334 384 21,000 -420 Descending Boston Center
09:42AM 41.1531 -72.9308 63° Northeast 334 384 21,000  Level Boston Center
09:43AM 41.1953 -72.8208 63° Northeast 329 379 21,000  Level Boston Center
09:44AM 41.2392 -72.7106 62° Northeast 324 373 21,000  Level Boston Center
09:45AM 41.2833 -72.5975 63° Northeast 324 373 21,000  Level Boston Center
09:46AM 41.3250 -72.4869 63° Northeast 324 373 21,000 -360 Level Boston Center
09:47AM 41.3667 -72.3736 64° Northeast 324 373 20,300 -900 Descending Boston Center
09:48AM 41.4083 -72.2686 62° Northeast 324 373 19,300 -1,200 Descending Boston Center
09:49AM 41.4558 -72.1464 63° Northeast 319 367 18,000 -1,080 Descending Boston Center
09:50AM 41.4911 -72.0550 63° Northeast 319 367 17,200 -1,080 Descending Boston Center
09:51AM 41.5344 -71.9381 64° Northeast 319 367 15,900 -1,140 Descending Boston Center
09:52AM 41.5694 -71.8464 63° Northeast 314 361 15,000 -1,020 Descending Boston Center
09:53AM 41.6125 -71.7319 63° Northeast 314 361 13,900 -1,020 Descending Boston Center
09:54AM 41.6472 -71.6400 63° Northeast 304 350 13,000 -1,080 Descending Boston Center
09:55AM 41.6881 -71.5283 64° Northeast 304 350 11,800 -960 Descending Boston Center
09:56AM 41.7208 -71.4417 63° Northeast 299 344 11,100 -360 Descending Boston Center
09:57AM 41.7719 -71.3433 55° Northeast 293 337 11,100  Level Boston Center
09:58AM 41.8294 -71.2644 46° Northeast 288 331 11,100 -60 Level Boston Center
09:59AM 41.9042 -71.2267 21° North 283 326 11,000 -1,020 Descending Boston Center
10:00AM 41.9808 -71.1917 19° North 288 331 9,100 -1,680 Descending Boston Center
10:01AM 42.0556 -71.1539 21° North 283 326 7,600 -1,320 Descending Boston Center
10:02AM 42.1197 -71.1275 17° North 257 296 6,600 -1,440 Descending Boston Center
10:03AM 42.1819 -71.1064 14° North 231 266 4,800 -1,440 Descending Boston Center
10:04AM 42.2339 -71.0744 24° Northeast 206 237 3,700 -1,500 Descending Boston Center
10:05AM 42.2667 -71.0667 10° North 182 209 2,600 -1,800 Descending KA90
10:06AM 42.3000 -71.0333 36° Northeast 171 197 1,200 -1,200 Descending KA90
10:07AM 42.3500 -71.0167 14° North 145 167 400 -840 Descending KA90